Home > Weather > St. Albert > Past weeks

Flag for Canada Weather for the Past 2 Weeks in St. Albert, Alberta, Canada

Now
27 °F

Chilly.


Feels Like: 27 °F
Forecast: 23 / 37 °F
Wind: 2 mph from West

Location: Edmonton Municipal

Current Time: Feb 14, 2016 at 7:53:02 AM

Latest Report: Feb 14, 2016 at 7:00 AM


Visibility: N/A

Pressure: 29.72 "Hg (27.37 "Hg at 653m altitude)

Humidity: 92%

Dew point: 25 °F

Location of St. AlbertLocation

Historic Weather in St. Albert — Graph

°F

St. Albert Temperature Yesterday

Maximum temperature yesterday: 43 °F (at 3:00 PM)
Minimum temperature yesterday: 19 °F (at 1:00 AM)
Average temperature yesterday: 31 °F

High & Low Weather Summary for the Past Weeks

 TemperatureHumidityPressure
High49 °F (Feb 9, 4:00 PM)100% (Feb 14, 4:00 AM)30.50 "Hg (Feb 14, 4:00 AM)
Low12 °F (Feb 3, 7:00 AM)32% (Feb 6, 1:00 PM)29.45 "Hg (Feb 6, 2:00 AM)
Average28 °F76%30.06 "Hg
* Reported Jan 30 6:00 AM — Feb 14 6:00 AM, St. Albert, Weather by CustomWeather, © 2016

Note: Actual official high and low records may vary slightly from our data, if they occured in-between our weather recording intervals... More about our weather records

Advertising

St. Albert Weather History for the Previous 24 Hours

 ConditionsComfort  
Time TempWeatherWind HumidityBarometerVisibility
6:00 AM
Sun, Feb 14
26 °FChilly.2 mph93%29.72 "HgN/A
5:00 AM28 °FChilly.2 mph95%29.71 "HgN/A
4:00 AM29 °FChilly.2 mph100%29.70 "HgN/A
3:00 AM27 °FChilly.2 mph93%29.70 "HgN/A
2:00 AM31 °FChilly.3 mph84%29.70 "HgN/A
1:00 AM31 °FChilly.3 mph87%29.71 "HgN/A
12:00 AM33 °FChilly.1 mph81%29.72 "HgN/A
11:00 PM
Sat, Feb 13
34 °FChilly.2 mph80%29.74 "HgN/A
10:00 PM33 °FChilly.5 mph81%29.77 "HgN/A
9:00 PM35 °FChilly.6 mph76%29.79 "HgN/A
8:00 PM35 °FChilly.7 mph77%29.82 "HgN/A
7:00 PM36 °FChilly.6 mph77%29.83 "HgN/A
6:00 PM35 °FChilly.5 mph71%29.84 "HgN/A
5:00 PM43 °FQuite cool.2 mph56%29.84 "HgN/A
4:00 PM42 °FQuite cool.6 mph61%29.85 "HgN/A
3:00 PM43 °FQuite cool.9 mph57%29.85 "HgN/A
2:00 PM43 °FQuite cool.12 mph59%29.85 "HgN/A
1:00 PM41 °FQuite cool.12 mph67%29.86 "HgN/A
12:00 PM38 °FChilly.8 mph76%29.87 "HgN/A
11:00 AM35 °FChilly.8 mph84%29.87 "HgN/A
10:00 AM30 °FChilly.5 mph97%29.88 "HgN/A
9:00 AM28 °FChilly.5 mph91%29.88 "HgN/A
8:00 AM24 °FCold.6 mph98%29.87 "HgN/A
7:00 AM23 °FCold.5 mph98%29.89 "HgN/A
Weather by CustomWeather, © 2016

See weather overviewHow to use our weather pages